Flag for Yemen Weather past 2 weeks in Ta'izz, Yemen

Now
72 °F

Passing clouds.


Feels Like: 75 °F
Forecast: 69 / 83 °F
Wind: 5 mph from Northeast

Location: Taiz

Current Time: Jul 31, 2014 at 2:41:38 AM

Latest Report: Jul 31, 2014 at 1:00 AM


Visibility: N/A

Pressure: 29.98 "Hg

Humidity: 69%

Dew point: 61 °F

Location of Ta'izzLocation

Historic Weather in Ta'izz — Graph

°F

Ta'izz temperature yesterday

Maximum temperature yesterday: 88 °F (at 3:00 PM)
Minimum temperature yesterday: 70 °F (at 6:00 AM)
Average temperature yesterday: 78 °F

Past Weeks' High & Low Weather Summary

 TemperatureHumidityPressure
High91 °F (Jul 17, 1:00 PM)89% (Jul 26, 6:00 PM)30.07 "Hg (Jul 26, 6:00 PM)
Low68 °F (Jul 29, 5:00 AM)22% (Jul 16, 10:00 PM)29.89 "Hg (Jul 17, 3:00 PM)
Average79 °F53%29.97 "Hg
* Reported Jul 16 1:00 AM — Jul 31 1:00 AM, Ta'izz, Weather by CustomWeather, © 2014

Note: Actual official high and low records may vary slightly from our data, if they occured in-between our weather recording intervals... More about our weather records

Advertising

Ta'izz weather history for previous 24 hours

 ConditionsComfort  
Time TempWeatherWind HumidityBarometerVisibility
1:00 AM
Jul 31
72 °FPassing clouds.5 mph69%29.98 "HgN/A
12:00 AM73 °FPassing clouds.5 mph65%29.98 "HgN/A
11:00 PM
Jul 30
72 °FPassing clouds.6 mph69%30.01 "HgN/A
10:00 PM73 °FPassing clouds.3 mph69%29.98 "HgN/A
9:00 PM73 °FPartly cloudy.3 mph65%29.98 "HgN/A
8:00 PM73 °FPartly cloudy.5 mph65%29.98 "HgN/A
6:00 PM75 °FLight rain. Scattered clouds.6 mph61%29.98 "HgN/A
5:00 PM81 °FThunderstorms. Scattered clouds.12 mph45%29.98 "HgN/A
4:00 PM84 °FScattered clouds.14 mph40%29.95 "HgN/A
3:00 PM88 °FScattered clouds.14 mph35%29.95 "HgN/A
2:00 PM86 °FScattered clouds.16 mph38%29.95 "HgN/A
12:00 PM86 °FPassing clouds.18 mph35%29.98 "HgN/A
11:00 AM82 °FPassing clouds.10 mph37%30.01 "HgN/A
10:00 AM79 °FPassing clouds.12 mph48%30.01 "HgN/A
9:00 AM77 °FPassing clouds.9 mph57%30.01 "HgN/A
8:00 AM75 °FSunny.6 mph74%30.01 "Hg10 mi
7:00 AM72 °FSunny.6 mph83%29.98 "Hg10 mi
6:00 AM70 °FSunny.5 mph88%29.98 "Hg10 mi
Weather by CustomWeather, © 2014

See weather overviewHow to use our weather pages